Regional Weather Roundup
Issued by NWS Newport/Morehead, NC

Current Version | Previous Version | Text Only | Print | Product List | Glossary On
Versions: 1 2 3 4 5 6 7 8 9 10 11 12 13 14 15 16 17 18 19 20 21 22 23 24 25 26 27 28 29 30 31 32 33 34 35 36 37 38 39 40 41 42 43 44 45 46 47 48 49 50
000
ASUS42 KMHX 300322
RWRMHX
WEATHER ROUNDUP FOR EASTERN NORTH CAROLINA
NATIONAL WEATHER SERVICE NEWPORT/MOREHEAD CITY NC
1100 PM EDT TUE JUL 29 2014

NOTE: "FAIR" INDICATES FEW OR NO CLOUDS BELOW 12,000 FEET
WITH NO SIGNIFICANT WEATHER AND/OR OBSTRUCTIONS TO VISIBILITY

NCZ015>017-031-032-045>047-102-103-300400-
NORTH COAST

CITY           SKY/WX    TMP DP  RH WIND       PRES   REMARKS
EDENTON        CLEAR     68  64  85 NE5       30.01R
ELIZABETH CITY CLEAR     70  62  76 E7        30.01R
KITTY HAWK     CLEAR     73  61  66 E6        29.99S
MANTEO         NOT AVBL

$$

NCZ045>047-081-094-103-104-300400-
CENTRAL COAST

CITY           SKY/WX    TMP DP  RH WIND       PRES   REMARKS
FRISCO         MOCLDY    75  65  70 NE7       29.98S
SWANQUARTER      N/A     70 N/A N/A NE5       29.97S

$$

NCZ095-097-098-100-101-300400-
SOUTHERN COAST

CITY           SKY/WX    TMP DP  RH WIND       PRES   REMARKS
BEAUFORT       CLOUDY    76  69  79 NE8       29.98R
CEDAR ISLAND     N/A     77 N/A N/A NE15      30.03S
JACKSONVILLE   MOCLDY    76  64  66 E8        29.98R
NEWPORT        NOT AVBL
PINEY ISLAND   CLOUDY    77  73  87 E13       29.98R
WILMINGTON     CLEAR     71  68  90 N3        29.98R


$$

NCZ011>013-027>030-043-044-078>080-089-090>093-098-300400-
COASTAL PLAIN

CITY           SKY/WX    TMP DP  RH WIND       PRES   REMARKS
AHOSKIE        CLEAR     64  61  93 CALM      30.01R
CLINTON        CLEAR     70  64  81 CALM      29.99R
ELIZABETHTOWN  PTCLDY    73  63  69 CALM      29.98S
GOLDSBORO      CLEAR     69  65  87 E2        29.97R
GREENVILLE     CLEAR     66  64  94 CALM      30.01S
HAVELOCK       CLOUDY    74  68  81 E8        29.99R
KENANSVILLE    MOCLDY    67  63  85 CALM      30.00R
KINSTON        PTCLDY    70  64  82 CALM      30.00S
NEW BERN       CLOUDY    76  66  71 E6        30.00R
RICHLANDS      CLOUDY    70  64  83 CALM      29.99S
ROANOKE RAPIDS NOT AVBL
ROCKY MOUNT    CLEAR     63  61  93 CALM      30.00R
WASHINGTON     PTCLDY    69  64  84 E5        30.01R
WHITEVILLE     PTCLDY    73  65  78 CALM      29.97S

$$

AMZ130-135-150-152-154-156-158-170-250-252-270-ANZ085-086-088-633-658-670-300400-
MARINE OBSERVATIONS

STATION/POSITION TIME  TEMP    WIND        PRES    WAVE   SWELL
                       AIR SEA DIR/SP/G            HT/PER HT/PER
                 (UTC) (F)     (DEG/KT/KT) (MB)    (FT/S) (FT/S)
CHESAPEAKE LIGHT NOT AVBL
BUOY 44014       0300   74 78   30/  8/ 10 1015.6    2/ 8   2/ 8
DUCK             0300   74 74   80/ 11/ 13 1015.3
2E DUCK          0300                        N/A     2/ 8
OREGON INLET     0300   74 79   50/  8/ 14 1015.5
BUOY 44095       0300      78                N/A     3/ 7
20E OREGON INLET NOT AVBL
HATTERAS CG      0300   76 81   60/  7/ 10 1015.7
DIAMOND BUOY     0300          VRB 16/ 17  1014.6    4/ 7   2/ 9
CAPE LOOKOUT     0300   77      60/ 15/ 17 1015.2
BEAUFORT LAB     0300   76 82   60/  4/  6 1014.9
30 SE NEW RIVER  0300   75 81   40/ 16/ 17 1015.2    3/ 8   2/ 8
5 SE WRIGHTSVILL 0300   73 82   50/ 14/ 16   N/A
BUOY 41002       0201   81 81  220/ 14/ 17 1014.3    6/ 7   3/ 7
BUOY 41004       0300   81 84   50/  6/  6 1013.6    2/ 5   2/ 5

$$


USA.gov is the U.S. government's official web portal to all federal, state and local government web resources and services.